| time (UTC) | temp F | wind direction | speed MPH | gust MPH | rain 1hr in | rain 24hr in | rain mn in | humidity % | barometer mb |
| 20260906161514 | 90 | 271 | 0.0 | 1.0 | 0.00 | 0.00 | 0.00 | 64 | 1014.1 |
| 20260906161007 | 89 | 264 | 0.0 | 2.0 | 0.00 | 0.00 | 0.00 | 64 | 1014.2 |
| 20260906160515 | 88 | 268 | 0.0 | 2.0 | 0.00 | 0.00 | 0.00 | 65 | 1014.1 |
| 20260906160033 | 88 | 283 | 1.0 | 2.0 | 0.00 | 0.00 | 0.00 | 64 | 1014.0 |
| 20260906155506 | 88 | 266 | 0.0 | 1.0 | 0.00 | 0.00 | 0.00 | 66 | 1013.9 |
| 20260906155011 | 88 | 154 | 0.0 | 3.0 | 0.00 | 0.00 | 0.00 | 67 | 1014.2 |
| 20260906154535 | 87 | 41 | 0.0 | 3.0 | 0.00 | 0.00 | 0.00 | 68 | 1014.2 |
| 20260906153509 | 86 | 2 | 0.0 | 2.0 | 0.00 | 0.00 | 0.00 | 69 | 1014.1 |
| 20260906153031 | 86 | 278 | 0.0 | 2.0 | 0.00 | 0.00 | 0.00 | 70 | 1014.1 |
| 20260906152007 | 85 | 292 | 0.0 | 1.0 | 0.00 | 0.00 | 0.00 | 71 | 1014.1 |
| 20260906151532 | 85 | 302 | 0.0 | 2.0 | 0.00 | 0.00 | 0.00 | 71 | 1014.2 |
| 20260906151014 | 85 | 274 | 0.0 | 2.0 | 0.00 | 0.00 | 0.00 | 71 | 1014.1 |
| 20260906150514 | 84 | 304 | 0.0 | 2.0 | 0.00 | 0.00 | 0.00 | 72 | 1014.1 |
| 20260906150030 | 84 | 235 | 0.0 | 0.0 | 0.00 | 0.00 | 0.00 | 71 | 1013.9 |
| 20260906145020 | 84 | 140 | 0.0 | 0.0 | 0.00 | 0.00 | 0.00 | 72 | 1013.8 |
| 20260906144518 | 83 | 293 | 0.0 | 0.0 | 0.00 | 0.00 | 0.00 | 73 | 1013.9 |
| 20260906144009 | 83 | 321 | 0.0 | 0.0 | 0.00 | 0.00 | 0.00 | 73 | 1014.0 |
| 20260906143520 | 83 | 299 | 0.0 | 0.0 | 0.00 | 0.00 | 0.00 | 72 | 1013.8 |
| 20260906143033 | 83 | 129 | 0.0 | 0.0 | 0.00 | 0.00 | 0.00 | 73 | 1013.8 |
| 20260906142510 | 83 | 310 | 0.0 | 0.0 | 0.00 | 0.00 | 0.00 | 74 | 1013.8 |
| 20260906142014 | 83 | 135 | 0.0 | 0.0 | 0.00 | 0.00 | 0.00 | 74 | 1013.9 |
| 20260906141528 | 83 | 198 | 0.0 | 0.0 | 0.00 | 0.00 | 0.00 | 74 | 1014.0 |
| 20260906141015 | 82 | 195 | 0.0 | 0.0 | 0.00 | 0.00 | 0.00 | 74 | 1014.1 |
| 20260906140510 | 82 | 191 | 0.0 | 0.0 | 0.00 | 0.00 | 0.00 | 74 | 1014.0 |
| 20260906140042 | 82 | 163 | 0.0 | 0.0 | 0.00 | 0.00 | 0.00 | 74 | 1014.0 |
| 20260906135505 | 82 | 153 | 0.0 | 0.0 | 0.00 | 0.00 | 0.00 | 74 | 1014.0 |
| 20260906135011 | 82 | 145 | 0.0 | 0.0 | 0.00 | 0.00 | 0.00 | 74 | 1013.9 |
| 20260906134508 | 81 | 84 | 0.0 | 0.0 | 0.00 | 0.00 | 0.00 | 74 | 1014.2 |
| 20260906134006 | 81 | 132 | 0.0 | 0.0 | 0.00 | 0.00 | 0.00 | 75 | 1014.2 |
| 20260906133508 | 81 | 126 | 0.0 | 0.0 | 0.00 | 0.00 | 0.00 | 75 | 1014.1 |
| 20260906133023 | 81 | 100 | 0.0 | 0.0 | 0.00 | 0.00 | 0.00 | 76 | 1014.0 |
| 20260906132504 | 80 | 119 | 0.0 | 0.0 | 0.00 | 0.00 | 0.00 | 75 | 1014.0 |
| 20260906132007 | 80 | 101 | 0.0 | 0.0 | 0.00 | 0.00 | 0.00 | 75 | 1014.1 |
| 20260906131532 | 79 | 307 | 0.0 | 0.0 | 0.00 | 0.00 | 0.00 | 77 | 1014.1 |
| 20260906131003 | 79 | 307 | 0.0 | 0.0 | 0.00 | 0.00 | 0.00 | 77 | 1014.5 |
| 20260906130504 | 78 | 307 | 0.0 | 0.0 | 0.00 | 0.00 | 0.00 | 78 | 1014.5 |
| 20260906130017 | 78 | 307 | 0.0 | 0.0 | 0.00 | 0.00 | 0.00 | 79 | 1014.5 |
| 20260906125509 | 77 | 341 | 0.0 | 0.0 | 0.00 | 0.00 | 0.00 | 81 | 1014.5 |
| 20260906125003 | 77 | 86 | 0.0 | 0.0 | 0.00 | 0.00 | 0.00 | 80 | 1014.5 |
| 20260906124508 | 77 | 86 | 0.0 | 0.0 | 0.00 | 0.00 | 0.00 | 81 | 1014.3 |
| 20260906124007 | 76 | 160 | 0.0 | 1.0 | 0.00 | 0.00 | 0.00 | 82 | 1014.3 |
| 20260906123504 | 76 | 214 | 0.0 | 1.0 | 0.00 | 0.00 | 0.00 | 83 | 1014.5 |
| 20260906123013 | 75 | 178 | 0.0 | 1.0 | 0.00 | 0.00 | 0.00 | 84 | 1014.7 |
| 20260906122508 | 75 | 155 | 0.0 | 1.0 | 0.00 | 0.00 | 0.00 | 84 | 1014.6 |
| 20260906122014 | 74 | 287 | 0.0 | 1.0 | 0.00 | 0.00 | 0.00 | 86 | 1014.7 |
| 20260906121506 | 74 | 288 | 0.0 | 0.0 | 0.00 | 0.00 | 0.00 | 87 | 1014.9 |
| 20260906121003 | 74 | 288 | 0.0 | 0.0 | 0.00 | 0.00 | 0.00 | 88 | 1014.7 |
| 20260906120510 | 74 | 288 | 0.0 | 0.0 | 0.00 | 0.00 | 0.00 | 88 | 1014.5 |
| 20260906120027 | 74 | 288 | 0.0 | 0.0 | 0.00 | 0.00 | 0.00 | 87 | 1014.4 |
| 20260906115507 | 73 | 288 | 0.0 | 0.0 | 0.00 | 0.00 | 0.00 | 87 | 1014.4 |
| 20260906115004 | 73 | 288 | 0.0 | 0.0 | 0.00 | 0.00 | 0.00 | 87 | 1014.4 |
| 20260906114530 | 73 | 288 | 0.0 | 0.0 | 0.00 | 0.00 | 0.00 | 87 | 1014.3 |
| 20260906113506 | 73 | 288 | 0.0 | 0.0 | 0.00 | 0.00 | 0.00 | 87 | 1014.6 |
| 20260906113019 | 73 | 288 | 0.0 | 0.0 | 0.00 | 0.00 | 0.00 | 87 | 1014.6 |
| 20260906112512 | 73 | 288 | 0.0 | 0.0 | 0.00 | 0.00 | 0.00 | 87 | 1014.6 |
| 20260906112004 | 73 | 288 | 0.0 | 0.0 | 0.00 | 0.00 | 0.00 | 87 | 1014.5 |
| 20260906111513 | 73 | 288 | 0.0 | 0.0 | 0.00 | 0.00 | 0.00 | 87 | 1014.5 |
| 20260906111009 | 73 | 288 | 0.0 | 0.0 | 0.00 | 0.00 | 0.00 | 87 | 1014.4 |
| 20260906110503 | 74 | 288 | 0.0 | 0.0 | 0.00 | 0.00 | 0.00 | 86 | 1014.3 |
| 20260906110008 | 74 | 288 | 0.0 | 0.0 | 0.00 | 0.00 | 0.00 | 86 | 1014.2 |
| 20260906105508 | 74 | 288 | 0.0 | 0.0 | 0.00 | 0.00 | 0.00 | 86 | 1014.1 |
| 20260906105013 | 74 | 288 | 0.0 | 0.0 | 0.00 | 0.00 | 0.00 | 86 | 1014.0 |
| 20260906104508 | 74 | 288 | 0.0 | 0.0 | 0.00 | 0.00 | 0.00 | 85 | 1014.0 |
| 20260906104011 | 74 | 288 | 0.0 | 0.0 | 0.00 | 0.00 | 0.00 | 85 | 1013.7 |
| 20260906103509 | 74 | 288 | 0.0 | 1.0 | 0.00 | 0.00 | 0.00 | 85 | 1013.9 |
| 20260906103009 | 74 | 288 | 0.0 | 2.0 | 0.00 | 0.00 | 0.00 | 85 | 1014.1 |
| 20260906102507 | 74 | 284 | 0.0 | 2.0 | 0.00 | 0.00 | 0.00 | 86 | 1013.9 |
| 20260906102007 | 74 | 305 | 0.0 | 2.0 | 0.00 | 0.00 | 0.00 | 86 | 1013.8 |
| 20260906101523 | 74 | 278 | 0.0 | 2.0 | 0.00 | 0.00 | 0.00 | 87 | 1013.5 |
| 20260906101003 | 74 | 260 | 0.0 | 2.0 | 0.00 | 0.00 | 0.00 | 87 | 1013.5 |
| 20260906100510 | 74 | 291 | 0.0 | 2.0 | 0.00 | 0.00 | 0.00 | 87 | 1013.9 |
| 20260906100031 | 74 | 295 | 0.0 | 0.0 | 0.00 | 0.00 | 0.00 | 88 | 1013.6 |
| 20260906095512 | 74 | 303 | 0.0 | 0.0 | 0.00 | 0.00 | 0.00 | 87 | 1013.5 |
| 20260906095003 | 74 | 303 | 0.0 | 0.0 | 0.00 | 0.00 | 0.00 | 88 | 1013.5 |
| 20260906094516 | 74 | 303 | 0.0 | 1.0 | 0.00 | 0.00 | 0.00 | 88 | 1013.5 |
| 20260906094010 | 74 | 303 | 0.0 | 1.0 | 0.00 | 0.00 | 0.00 | 87 | 1013.5 |
| 20260906093504 | 74 | 93 | 0.0 | 0.0 | 0.00 | 0.00 | 0.00 | 87 | 1013.7 |
| 20260906093033 | 74 | 94 | 0.0 | 0.0 | 0.00 | 0.00 | 0.00 | 87 | 1013.5 |
| 20260906092510 | 74 | 94 | 0.0 | 0.0 | 0.00 | 0.00 | 0.00 | 87 | 1013.5 |
| 20260906092014 | 74 | 94 | 0.0 | 0.0 | 0.00 | 0.00 | 0.00 | 87 | 1013.6 |
| 20260906091511 | 74 | 94 | 0.0 | 1.0 | 0.00 | 0.00 | 0.00 | 86 | 1013.8 |
| 20260906091008 | 74 | 94 | 0.0 | 1.0 | 0.00 | 0.00 | 0.00 | 86 | 1014.0 |
| 20260906090512 | 74 | 94 | 0.0 | 0.0 | 0.00 | 0.00 | 0.00 | 86 | 1013.8 |
| 20260906090013 | 74 | 94 | 0.0 | 0.0 | 0.00 | 0.00 | 0.00 | 85 | 1013.7 |
| 20260906085503 | 74 | 94 | 0.0 | 2.0 | 0.00 | 0.00 | 0.00 | 85 | 1013.5 |
| 20260906085013 | 75 | 94 | 0.0 | 2.0 | 0.00 | 0.00 | 0.00 | 84 | 1013.7 |
| 20260906084534 | 75 | 144 | 0.0 | 3.0 | 0.00 | 0.00 | 0.00 | 83 | 1013.7 |
| 20260906084003 | 75 | 143 | 0.0 | 4.0 | 0.00 | 0.00 | 0.00 | 82 | 1013.4 |
| 20260906083508 | 75 | 165 | 1.0 | 4.0 | 0.00 | 0.00 | 0.00 | 81 | 1013.4 |
| 20260906083035 | 76 | 191 | 0.0 | 2.0 | 0.00 | 0.00 | 0.00 | 80 | 1013.4 |
| 20260906082512 | 76 | 134 | 0.0 | 3.0 | 0.00 | 0.00 | 0.00 | 79 | 1013.3 |
| 20260906082010 | 76 | 181 | 1.0 | 7.0 | 0.00 | 0.00 | 0.00 | 79 | 1013.3 |
| 20260906081519 | 76 | 93 | 3.0 | 7.0 | 0.00 | 0.00 | 0.00 | 79 | 1013.5 |
| 20260906081015 | 76 | 99 | 1.0 | 5.0 | 0.00 | 0.00 | 0.00 | 79 | 1013.7 |
| 20260906080504 | 76 | 82 | 2.0 | 8.0 | 0.00 | 0.00 | 0.00 | 78 | 1014.0 |
| 20260906080015 | 77 | 60 | 3.0 | 8.0 | 0.00 | 0.00 | 0.00 | 77 | 1014.0 |
| 20260906075511 | 78 | 92 | 1.0 | 6.0 | 0.00 | 0.00 | 0.00 | 76 | 1014.0 |
| 20260906075014 | 78 | 66 | 2.0 | 6.0 | 0.00 | 0.00 | 0.00 | 75 | 1014.0 |
| 20260906074529 | 78 | 67 | 3.0 | 7.0 | 0.00 | 0.00 | 0.00 | 75 | 1014.0 |
| 20260906074007 | 79 | 105 | 1.0 | 7.0 | 0.00 | 0.00 | 0.00 | 76 | 1014.0 |
| 20260906073513 | 79 | 94 | 1.0 | 8.0 | 0.00 | 0.00 | 0.00 | 76 | 1014.2 |
| 20260906073010 | 79 | 46 | 3.0 | 8.0 | 0.00 | 0.00 | 0.00 | 77 | 1014.1 |
| 20260906072506 | 79 | 27 | 3.0 | 8.0 | 0.00 | 0.00 | 0.00 | 78 | 1014.2 |
| 20260906072013 | 79 | 77 | 2.0 | 8.0 | 0.00 | 0.00 | 0.00 | 78 | 1014.3 |
| 20260906071531 | 79 | 26 | 2.0 | 6.0 | 0.00 | 0.00 | 0.00 | 78 | 1014.3 |
| 20260906071006 | 80 | 345 | 1.0 | 6.0 | 0.00 | 0.00 | 0.00 | 78 | 1014.4 |
| 20260906070510 | 79 | 322 | 0.0 | 2.0 | 0.00 | 0.00 | 0.00 | 80 | 1014.3 |
| 20260906070030 | 80 | 75 | 0.0 | 2.0 | 0.00 | 0.00 | 0.00 | 80 | 1014.0 |
| 20260906065503 | 80 | 75 | 0.0 | 2.0 | 0.00 | 0.00 | 0.00 | 80 | 1014.0 |
| 20260906065008 | 79 | 91 | 0.0 | 2.0 | 0.00 | 0.00 | 0.00 | 81 | 1013.9 |
| 20260906064524 | 79 | 96 | 0.0 | 2.0 | 0.00 | 0.00 | 0.00 | 82 | 1013.7 |
| 20260906064014 | 79 | 74 | 0.0 | 0.0 | 0.00 | 0.00 | 0.00 | 82 | 1013.6 |
| 20260906063509 | 79 | 133 | 0.0 | 0.0 | 0.00 | 0.00 | 0.00 | 83 | 1013.5 |
| 20260906063023 | 79 | 167 | 0.0 | 0.0 | 0.00 | 0.00 | 0.00 | 83 | 1013.4 |
| 20260906062515 | 79 | 167 | 0.0 | 0.0 | 0.00 | 0.00 | 0.00 | 83 | 1013.5 |
| 20260906062014 | 79 | 167 | 0.0 | 0.0 | 0.00 | 0.00 | 0.00 | 83 | 1013.7 |
| 20260906061518 | 79 | 149 | 0.0 | 0.0 | 0.00 | 0.00 | 0.00 | 83 | 1013.7 |
| 20260906061012 | 79 | 149 | 0.0 | 0.0 | 0.00 | 0.00 | 0.00 | 83 | 1013.9 |
| 20260906060513 | 79 | 149 | 0.0 | 0.0 | 0.00 | 0.00 | 0.00 | 83 | 1013.8 |
| 20260906060012 | 79 | 149 | 0.0 | 0.0 | 0.00 | 0.00 | 0.00 | 82 | 1014.0 |
| 20260906055508 | 79 | 149 | 0.0 | 0.0 | 0.00 | 0.00 | 0.00 | 83 | 1013.8 |
| 20260906055012 | 79 | 90 | 0.0 | 3.0 | 0.00 | 0.00 | 0.00 | 83 | 1013.7 |
| 20260906054532 | 79 | 90 | 0.0 | 3.0 | 0.00 | 0.00 | 0.00 | 84 | 1013.7 |
| 20260906054006 | 79 | 47 | 1.0 | 3.0 | 0.00 | 0.00 | 0.00 | 84 | 1014.0 |
| 20260906053512 | 79 | 134 | 0.0 | 1.0 | 0.00 | 0.00 | 0.00 | 84 | 1013.8 |
| 20260906053030 | 79 | 210 | 0.0 | 1.0 | 0.00 | 0.00 | 0.00 | 84 | 1013.7 |
| 20260906052506 | 79 | 210 | 0.0 | 1.0 | 0.00 | 0.00 | 0.00 | 84 | 1013.6 |
| 20260906051530 | 79 | 150 | 0.0 | 1.0 | 0.00 | 0.00 | 0.00 | 83 | 1013.1 |
| 20260906051014 | 79 | 139 | 0.0 | 2.0 | 0.00 | 0.00 | 0.00 | 84 | 1013.4 |
| 20260906050505 | 79 | 146 | 0.0 | 2.0 | 0.00 | 0.00 | 0.00 | 84 | 1013.4 |
| 20260906050023 | 78 | 148 | 0.0 | 0.0 | 0.00 | 0.00 | 0.00 | 84 | 1013.4 |
| 20260906045514 | 78 | 148 | 0.0 | 0.0 | 0.00 | 0.00 | 0.00 | 83 | 1013.3 |
| 20260906045015 | 78 | 148 | 0.0 | 0.0 | 0.00 | 0.00 | 0.00 | 83 | 1013.3 |
| 20260906044518 | 78 | 148 | 0.0 | 0.0 | 0.00 | 0.00 | 0.00 | 83 | 1013.3 |
| 20260906044015 | 78 | 148 | 0.0 | 0.0 | 0.00 | 0.00 | 0.00 | 83 | 1013.5 |
| 20260906043517 | 78 | 148 | 0.0 | 0.0 | 0.00 | 0.00 | 0.00 | 83 | 1013.6 |
| 20260906043016 | 78 | 148 | 0.0 | 0.0 | 0.00 | 0.00 | 0.00 | 83 | 1013.7 |
| 20260906042511 | 78 | 148 | 0.0 | 0.0 | 0.00 | 0.00 | 0.00 | 83 | 1013.7 |
| 20260906042016 | 78 | 148 | 0.0 | 0.0 | 0.00 | 0.00 | 0.00 | 83 | 1013.5 |
| 20260906041546 | 78 | 148 | 0.0 | 0.0 | 0.00 | 0.00 | 0.00 | 83 | 1013.7 |
| 20260906041007 | 78 | 148 | 0.0 | 0.0 | 0.00 | 0.00 | 0.00 | 83 | 1013.6 |
| 20260906040512 | 78 | 148 | 0.0 | 0.0 | 0.00 | 0.00 | 0.00 | 82 | 1013.7 |
| 20260906040035 | 78 | 148 | 0.0 | 0.0 | 0.00 | 0.00 | 0.00 | 83 | 1013.7 |
| 20260906035504 | 78 | 148 | 0.0 | 0.0 | 0.00 | 0.00 | 0.00 | 83 | 1013.6 |
| 20260906035010 | 78 | 148 | 0.0 | 0.0 | 0.00 | 0.00 | 0.00 | 82 | 1013.7 |
| 20260906034541 | 78 | 148 | 0.0 | 0.0 | 0.00 | 0.00 | 0.00 | 81 | 1013.7 |
| 20260906034023 | 78 | 148 | 0.0 | 0.0 | 0.00 | 0.00 | 0.00 | 81 | 1013.7 |
| 20260906033509 | 78 | 148 | 0.0 | 0.0 | 0.00 | 0.00 | 0.00 | 81 | 1013.7 |
| 20260906033027 | 78 | 148 | 0.0 | 0.0 | 0.00 | 0.00 | 0.00 | 81 | 1013.5 |
| 20260906032504 | 79 | 148 | 0.0 | 0.0 | 0.00 | 0.00 | 0.00 | 81 | 1013.7 |
| 20260906032007 | 79 | 148 | 0.0 | 0.0 | 0.00 | 0.00 | 0.00 | 80 | 1013.5 |
| 20260906031525 | 79 | 148 | 0.0 | 0.0 | 0.00 | 0.00 | 0.00 | 80 | 1013.6 |
| 20260906031012 | 79 | 148 | 0.0 | 0.0 | 0.00 | 0.00 | 0.00 | 80 | 1013.6 |
| 20260906030504 | 79 | 148 | 0.0 | 0.0 | 0.00 | 0.00 | 0.00 | 79 | 1013.5 |
| 20260906030022 | 79 | 148 | 0.0 | 0.0 | 0.00 | 0.00 | 0.00 | 78 | 1013.7 |
| 20260906025517 | 79 | 113 | 0.0 | 0.0 | 0.00 | 0.00 | 0.00 | 78 | 1013.8 |
| 20260906025004 | 79 | 113 | 0.0 | 0.0 | 0.00 | 0.00 | 0.00 | 77 | 1013.6 |
| 20260906024512 | 79 | 94 | 0.0 | 0.0 | 0.00 | 0.00 | 0.00 | 76 | 1013.4 |
| 20260906024012 | 79 | 94 | 0.0 | 0.0 | 0.00 | 0.00 | 0.00 | 76 | 1013.3 |
| 20260906023512 | 79 | 94 | 0.0 | 1.0 | 0.00 | 0.00 | 0.00 | 75 | 1013.2 |
| 20260906023008 | 80 | 94 | 0.0 | 1.0 | 0.00 | 0.00 | 0.00 | 74 | 1013.1 |
| 20260906022505 | 80 | 94 | 0.0 | 0.0 | 0.00 | 0.00 | 0.00 | 74 | 1013.2 |
| 20260906022011 | 80 | 94 | 0.0 | 0.0 | 0.00 | 0.00 | 0.00 | 74 | 1013.1 |
| 20260906021508 | 80 | 94 | 0.0 | 1.0 | 0.00 | 0.00 | 0.00 | 72 | 1013.0 |
| 20260906021008 | 80 | 94 | 0.0 | 1.0 | 0.00 | 0.00 | 0.00 | 72 | 1012.9 |
| 20260906020510 | 80 | 114 | 0.0 | 0.0 | 0.00 | 0.00 | 0.00 | 73 | 1012.8 |
| 20260906020033 | 80 | 113 | 0.0 | 0.0 | 0.00 | 0.00 | 0.00 | 73 | 1012.8 |
| 20260906015503 | 81 | 113 | 0.0 | 0.0 | 0.00 | 0.00 | 0.00 | 72 | 1012.8 |
| 20260906015006 | 81 | 113 | 0.0 | 0.0 | 0.00 | 0.00 | 0.00 | 72 | 1012.5 |
| 20260906014541 | 81 | 113 | 0.0 | 0.0 | 0.00 | 0.00 | 0.00 | 71 | 1012.7 |
| 20260906014018 | 81 | 113 | 0.0 | 0.0 | 0.00 | 0.00 | 0.00 | 71 | 1012.5 |
| 20260906013506 | 81 | 113 | 0.0 | 0.0 | 0.00 | 0.00 | 0.00 | 70 | 1012.4 |
| 20260906013024 | 81 | 113 | 0.0 | 0.0 | 0.00 | 0.00 | 0.00 | 70 | 1012.4 |
| 20260906012511 | 82 | 113 | 0.0 | 0.0 | 0.00 | 0.00 | 0.00 | 69 | 1012.4 |
| 20260906012005 | 82 | 113 | 0.0 | 0.0 | 0.00 | 0.00 | 0.00 | 70 | 1012.3 |
| 20260906011517 | 82 | 113 | 0.0 | 0.0 | 0.00 | 0.00 | 0.00 | 68 | 1012.2 |
| 20260906010521 | 82 | 113 | 0.0 | 0.0 | 0.00 | 0.00 | 0.00 | 67 | 1012.1 |
| 20260906010033 | 83 | 113 | 0.0 | 0.0 | 0.00 | 0.00 | 0.00 | 66 | 1012.0 |
| 20260906005509 | 83 | 113 | 0.0 | 2.0 | 0.00 | 0.00 | 0.00 | 65 | 1012.1 |
| 20260906005014 | 83 | 113 | 0.0 | 2.0 | 0.00 | 0.00 | 0.00 | 64 | 1011.8 |
| 20260906004510 | 83 | 103 | 1.0 | 2.0 | 0.00 | 0.00 | 0.00 | 65 | 1012.0 |
| 20260906003512 | 84 | 77 | 0.0 | 3.0 | 0.00 | 0.00 | 0.00 | 65 | 1011.9 |
| 20260906003032 | 85 | 74 | 1.0 | 3.0 | 0.00 | 0.00 | 0.00 | 65 | 1012.0 |
| 20260906002010 | 86 | 84 | 1.0 | 4.0 | 0.00 | 0.00 | 0.00 | 63 | 1012.1 |
| 20260906001538 | 86 | 91 | 1.0 | 4.0 | 0.00 | 0.00 | 0.00 | 63 | 1012.1 |
| 20260906001015 | 87 | 86 | 0.0 | 5.0 | 0.00 | 0.00 | 0.00 | 65 | 1012.3 |
| 20260906000509 | 87 | 83 | 1.0 | 6.0 | 0.00 | 0.00 | 0.00 | 64 | 1012.4 |
| 20260906000024 | 88 | 119 | 2.0 | 7.0 | 0.00 | 0.00 | 0.00 | 61 | 1012.5 |
| 20260905235516 | 89 | 82 | 2.0 | 7.0 | 0.00 | 0.00 | 0.00 | 58 | 1012.7 |
| 20260905235003 | 90 | 74 | 2.0 | 10.0 | 0.00 | 0.00 | 0.00 | 57 | 1012.7 |
| 20260905234522 | 91 | 63 | 1.0 | 10.0 | 0.00 | 0.00 | 0.00 | 56 | 1012.2 |
| 20260905234013 | 93 | 85 | 1.0 | 3.0 | 0.00 | 0.00 | 0.00 | 57 | 1012.1 |
| 20260905233514 | 93 | 297 | 0.0 | 2.0 | 0.00 | 0.00 | 0.00 | 57 | 1012.0 |
| 20260905233016 | 93 | 291 | 0.0 | 2.0 | 0.00 | 0.00 | 0.00 | 57 | 1011.9 |
| 20260905232515 | 94 | 286 | 0.0 | 3.0 | 0.00 | 0.00 | 0.00 | 57 | 1011.7 |
| 20260905232014 | 94 | 274 | 1.0 | 3.0 | 0.00 | 0.00 | 0.00 | 55 | 1011.7 |
| 20260905231518 | 94 | 283 | 0.0 | 2.0 | 0.00 | 0.00 | 0.00 | 56 | 1011.7 |
| 20260905231011 | 94 | 268 | 0.0 | 4.0 | 0.00 | 0.00 | 0.00 | 56 | 1011.7 |
| 20260905230513 | 94 | 277 | 1.0 | 4.0 | 0.00 | 0.00 | 0.00 | 55 | 1011.6 |
| 20260905230038 | 94 | 287 | 0.0 | 2.0 | 0.00 | 0.00 | 0.00 | 55 | 1011.6 |
| 20260905225507 | 93 | 293 | 1.0 | 2.0 | 0.00 | 0.00 | 0.00 | 54 | 1011.5 |
| 20260905225008 | 94 | 108 | 0.0 | 2.0 | 0.00 | 0.00 | 0.00 | 55 | 1011.6 |
| 20260905224542 | 94 | 108 | 0.0 | 2.0 | 0.00 | 0.00 | 0.00 | 52 | 1011.7 |
| 20260905224007 | 94 | 105 | 0.0 | 2.0 | 0.00 | 0.00 | 0.00 | 51 | 1011.6 |
| 20260905223509 | 93 | 276 | 0.0 | 0.0 | 0.00 | 0.00 | 0.00 | 55 | 1011.6 |
| 20260905223036 | 93 | 276 | 0.0 | 0.0 | 0.00 | 0.00 | 0.00 | 55 | 1011.7 |
| 20260905222517 | 93 | 276 | 0.0 | 0.0 | 0.00 | 0.00 | 0.00 | 56 | 1011.7 |
| 20260905222007 | 93 | 276 | 0.0 | 0.0 | 0.00 | 0.00 | 0.00 | 55 | 1011.7 |
| 20260905221527 | 93 | 276 | 0.0 | 1.0 | 0.00 | 0.00 | 0.00 | 56 | 1011.7 |
| 20260905221014 | 94 | 276 | 0.0 | 1.0 | 0.00 | 0.00 | 0.00 | 54 | 1011.7 |
| 20260905220515 | 95 | 276 | 0.0 | 2.0 | 0.00 | 0.00 | 0.00 | 52 | 1011.8 |
| 20260905220024 | 96 | 276 | 0.0 | 3.0 | 0.00 | 0.00 | 0.00 | 51 | 1011.8 |
| 20260905215016 | 97 | 2 | 1.0 | 3.0 | 0.00 | 0.00 | 0.00 | 48 | 1011.7 |
| 20260905214518 | 96 | 277 | 1.0 | 3.0 | 0.00 | 0.00 | 0.00 | 48 | 1011.8 |
| 20260905214011 | 96 | 77 | 0.0 | 4.0 | 0.00 | 0.00 | 0.00 | 48 | 1012.0 |
| 20260905213512 | 97 | 271 | 1.0 | 5.0 | 0.00 | 0.00 | 0.00 | 46 | 1011.9 |
| 20260905213032 | 97 | 272 | 1.0 | 5.0 | 0.00 | 0.00 | 0.00 | 47 | 1011.9 |
| 20260905212508 | 97 | 103 | 0.0 | 3.0 | 0.00 | 0.00 | 0.00 | 47 | 1011.8 |
| 20260905212014 | 97 | 262 | 0.0 | 1.0 | 0.00 | 0.01 | 0.00 | 47 | 1011.9 |
| 20260905211540 | 97 | 345 | 0.0 | 1.0 | 0.00 | 0.01 | 0.00 | 47 | 1011.9 |
| 20260905211003 | 97 | 269 | 0.0 | 1.0 | 0.00 | 0.02 | 0.00 | 45 | 1011.9 |
| 20260905210509 | 97 | 269 | 0.0 | 2.0 | 0.00 | 0.04 | 0.00 | 47 | 1011.7 |
| 20260905210035 | 98 | 269 | 0.0 | 2.0 | 0.00 | 0.05 | 0.00 | 44 | 1011.9 |
| 20260905205514 | 98 | 91 | 0.0 | 1.0 | 0.00 | 0.06 | 0.00 | 44 | 1011.9 |
| 20260905205009 | 98 | 77 | 0.0 | 4.0 | 0.00 | 0.06 | 0.00 | 44 | 1012.1 |
| 20260905204529 | 98 | 79 | 1.0 | 4.0 | 0.00 | 0.06 | 0.00 | 44 | 1012.1 |
| 20260905204013 | 98 | 56 | 0.0 | 3.0 | 0.00 | 0.06 | 0.00 | 43 | 1012.1 |
| 20260905203519 | 98 | 65 | 0.0 | 2.0 | 0.00 | 0.06 | 0.00 | 46 | 1012.2 |
| 20260905203037 | 98 | 266 | 0.0 | 1.0 | 0.00 | 0.06 | 0.00 | 47 | 1012.3 |
| 20260905202516 | 98 | 222 | 0.0 | 2.0 | 0.00 | 0.06 | 0.00 | 44 | 1012.2 |
| 20260905202014 | 98 | 273 | 0.0 | 2.0 | 0.00 | 0.06 | 0.00 | 45 | 1012.4 |
| 20260905201521 | 98 | 262 | 0.0 | 2.0 | 0.00 | 0.06 | 0.00 | 43 | 1012.4 |
| 20260905201011 | 99 | 252 | 0.0 | 4.0 | 0.00 | 0.06 | 0.00 | 42 | 1012.7 |
| 20260905200516 | 99 | 332 | 0.0 | 4.0 | 0.00 | 0.06 | 0.00 | 43 | 1012.8 |
| 20260905200031 | 99 | 89 | 0.0 | 4.0 | 0.00 | 0.06 | 0.00 | 45 | 1012.9 |
| 20260905195510 | 99 | 293 | 0.0 | 4.0 | 0.00 | 0.06 | 0.00 | 43 | 1013.0 |
| 20260905195012 | 98 | 84 | 1.0 | 3.0 | 0.00 | 0.06 | 0.00 | 46 | 1013.0 |
| 20260905194530 | 98 | 84 | 0.0 | 4.0 | 0.00 | 0.06 | 0.00 | 46 | 1013.0 |
| 20260905194005 | 97 | 127 | 0.0 | 4.0 | 0.00 | 0.06 | 0.00 | 47 | 1013.0 |
| 20260905193509 | 97 | 103 | 0.0 | 3.0 | 0.00 | 0.06 | 0.00 | 48 | 1013.3 |
| 20260905193034 | 97 | 267 | 1.0 | 2.0 | 0.00 | 0.06 | 0.00 | 47 | 1013.2 |
| 20260905192519 | 96 | 278 | 0.0 | 2.0 | 0.00 | 0.06 | 0.00 | 53 | 1013.2 |
| 20260905192010 | 96 | 329 | 0.0 | 2.0 | 0.00 | 0.06 | 0.00 | 50 | 1013.2 |
| 20260905191531 | 97 | 288 | 1.0 | 2.0 | 0.00 | 0.06 | 0.00 | 48 | 1013.5 |
| 20260905191016 | 97 | 256 | 0.0 | 3.0 | 0.00 | 0.06 | 0.00 | 48 | 1013.5 |
| 20260905190517 | 96 | 252 | 0.0 | 3.0 | 0.00 | 0.06 | 0.00 | 49 | 1013.6 |
| 20260905190028 | 95 | 96 | 1.0 | 3.0 | 0.00 | 0.06 | 0.00 | 49 | 1013.7 |
| 20260905185514 | 95 | 252 | 0.0 | 2.0 | 0.00 | 0.06 | 0.00 | 51 | 1013.8 |
| 20260905185018 | 97 | 270 | 0.0 | 3.0 | 0.00 | 0.06 | 0.00 | 49 | 1014.1 |
| 20260905184515 | 97 | 270 | 0.0 | 3.0 | 0.00 | 0.06 | 0.00 | 50 | 1013.9 |
| 20260905184010 | 98 | 272 | 0.0 | 4.0 | 0.00 | 0.06 | 0.00 | 49 | 1014.0 |
| 20260905183516 | 98 | 278 | 0.0 | 4.0 | 0.00 | 0.06 | 0.00 | 50 | 1014.1 |
| 20260905183040 | 98 | 283 | 2.0 | 4.0 | 0.00 | 0.06 | 0.00 | 48 | 1014.2 |
| 20260905182513 | 97 | 276 | 0.0 | 4.0 | 0.00 | 0.06 | 0.00 | 49 | 1014.2 |
| 20260905182004 | 97 | 101 | 0.0 | 3.0 | 0.00 | 0.06 | 0.00 | 51 | 1014.1 |
| 20260905181511 | 97 | 329 | 0.0 | 2.0 | 0.00 | 0.06 | 0.00 | 49 | 1014.2 |
| 20260905181006 | 97 | 28 | 0.0 | 4.0 | 0.00 | 0.06 | 0.00 | 51 | 1014.3 |
| 20260905180503 | 97 | 279 | 1.0 | 4.0 | 0.00 | 0.06 | 0.00 | 50 | 1014.4 |
| 20260905180007 | 97 | 287 | 0.0 | 3.0 | 0.00 | 0.06 | 0.00 | 54 | 1014.4 |
| 20260905175504 | 96 | 282 | 0.0 | 3.0 | 0.00 | 0.06 | 0.00 | 56 | 1014.3 |
| 20260905175008 | 96 | 316 | 0.0 | 2.0 | 0.00 | 0.06 | 0.00 | 53 | 1014.3 |
| 20260905174504 | 96 | 281 | 1.0 | 2.0 | 0.00 | 0.06 | 0.00 | 54 | 1014.5 |
| 20260905174004 | 95 | 290 | 0.0 | 5.0 | 0.00 | 0.06 | 0.00 | 54 | 1014.6 |
| 20260905173507 | 95 | 283 | 2.0 | 5.0 | 0.00 | 0.06 | 0.00 | 53 | 1014.6 |
| 20260905173024 | 95 | 279 | 2.0 | 5.0 | 0.00 | 0.06 | 0.00 | 58 | 1014.6 |
| 20260905172505 | 95 | 273 | 0.0 | 2.0 | 0.00 | 0.06 | 0.00 | 57 | 1014.7 |
| 20260905172007 | 95 | 252 | 0.0 | 4.0 | 0.00 | 0.06 | 0.00 | 56 | 1014.7 |
| 20260905171521 | 95 | 252 | 0.0 | 4.0 | 0.00 | 0.06 | 0.00 | 55 | 1014.9 |
| 20260905171003 | 95 | 280 | 2.0 | 4.0 | 0.00 | 0.06 | 0.00 | 56 | 1014.9 |
| 20260905170505 | 94 | 266 | 0.0 | 2.0 | 0.00 | 0.06 | 0.00 | 60 | 1014.8 |
| 20260905170015 | 94 | 278 | 0.0 | 3.0 | 0.00 | 0.06 | 0.00 | 59 | 1014.9 |
| 20260905165511 | 93 | 242 | 0.0 | 5.0 | 0.00 | 0.06 | 0.00 | 59 | 1014.9 |
| 20260905165005 | 93 | 268 | 1.0 | 5.0 | 0.00 | 0.06 | 0.00 | 58 | 1015.2 |
| 20260905164514 | 93 | 281 | 0.0 | 3.0 | 0.00 | 0.06 | 0.00 | 61 | 1015.2 |
| 20260905164010 | 93 | 82 | 1.0 | 3.0 | 0.00 | 0.06 | 0.00 | 59 | 1015.2 |
| 20260905163504 | 92 | 270 | 0.0 | 4.0 | 0.00 | 0.06 | 0.00 | 62 | 1015.2 |
| 20260905163013 | 92 | 281 | 1.0 | 4.0 | 0.00 | 0.06 | 0.00 | 59 | 1015.4 |
| 20260905162507 | 92 | 279 | 0.0 | 2.0 | 0.00 | 0.06 | 0.00 | 61 | 1015.4 |
| 20260905162011 | 91 | 350 | 0.0 | 2.0 | 0.00 | 0.06 | 0.00 | 65 | 1015.7 |